STARLINK-1830, 46727

Orbit data source: Space-Track

STARLINK-1830, 46727 is a payload satellite owned by SpaceX/Seattle (US) in LEO that was launched on Sun, 18 Oct 2020 UTC via an FALCON 9 launch vehicle from the Air Force Eastern Test Range (AFETR). Payload-class satellites include a variety of spacecraft equipped with specific instruments for various scientific and technological missions. These include communications satellites like Starlink; space stations such as the ISS; scientific satellites like the Hubble; Earth observation satellites from companies like Planet Labs, Umbra, and HawkEye 360; GPS; miniature CubeSats for education and research; and military/defense satellites.

Loading next visibility...
Identifier
46727, 2020-073BK
Orbit
LEO
Last TLE update
19 hours ago
Origin
Manufacturer
SpaceX/Seattle
Mission
Operational Commercial Communications
Bus & Motor
STARLINK, Unknown motor
Mass
260 kg wet, ~248 kg dry
Launch date (UTC)
2020-10-18 (5 years ago)
Launch vehicle
FALCON 9
Launch site
Air Force Eastern Test Range (AFETR)
Object type
Payload
Rocket body
Debris
Shape & HBR
Box + 1 Pan, 8.86 m
Radar Cross Section
13.562 m², Large (>1 m²)

Expand to show TLE details & history

TLE from 19 hours ago
0 STARLINK-1830
1 46727U 20073BK  25181.50654457  .00004237  00000-0  30319-3 0  9996
2 46727  53.0540 268.7150 0001186  78.4781 281.6341 15.06395103259470
Epoch: 2025-06-30T12:09Z
TLE epoch observation values (Epoch: 2025-06-30T12:09:25.45Z)
Latitude
-0.00005°
Longitude
167.54355°
Altitude
547.94 km
Speed
7.589 km/s
True Right ascension
17h 54m 51s
True Declination
0° 00' 00"
Sunlit
Object was in full shadow at epoch
Visualization orbit readout
Latitude
-38.68007°
Longitude
20.85956°
Altitude
560.537 km
Speed
7.581 km/s
Apparent Right ascension
07h 16m 37s
Apparent Declination
-39° 53' 11"
Sunlit
Object is in daylight
Visualization observer readout
Local Sidereal Time
18:19:29
Azimuth
265.559° W
Elevation
-79.056°
Doppler factor
1
Orbital elements
Apogee altitude
548.319 km
Perigee altitude
546.676 km
Semi-major axis
6,925.634 km
Eccentricity
0.00012
Inclination
53.054°
RAAN
268.715°
Arg. of periapsis
78.4781°
True anomaly
Unknown
Mean anomaly
281.6341°
Eccentric anomaly
Unknown
Mean motion
3.76577 °/min
Orbital period
95.6 mins
BSTAR
0.00030319
Loading maneuver chart data...
Loading SW <> Apogee altitude chart data...

STARLINK-1830 Visibility forecast

Observer location: undefined°, undefined°

Span
Click to sort rows by Start time (UTC) header in descending order
Start Az.
Max El. time (UTC)
Max El. Az.
Max El.
End time (UTC)
End Az.
6 mins2025-07-01 07:24:39.750Z176.902° S2025-07-01 07:27:39.750Z125.777° SE20.458°2025-07-01 07:30:39.750Z77.992° E
6 mins2025-07-01 09:04:39.750Z258.388° W2025-07-01 09:06:39.750Z317.506° NNW38.246°2025-07-01 09:10:39.750Z42.09° NE
4 mins2025-07-01 10:45:39.750Z320.47° NNW2025-07-01 10:46:39.750Z337.382° NNW15.778°2025-07-01 10:49:39.750Z24.752° NE
5 mins2025-07-01 14:06:39.750Z344.067° N2025-07-01 14:08:39.750Z29.964° NE25.582°2025-07-01 14:11:39.750Z84.693° E
6 mins2025-07-01 15:45:39.750Z293.759° NW2025-07-01 15:48:39.750Z202.778° SW36.715°2025-07-01 15:51:39.750Z151.625° SSE
|